Location: Unspecified
(54.1780°N, 0.0000°E)
Time: 04:30:48
(UTC+00:00)

Transit 2A - Pass Details

Date: 21 June 2019
Orbit: 596 x 962 km, 66.7° (Epoch: 16 August)

Event Time Altitude Azimuth Distance (km) Brightness Sun altitude
Rises 22:45:06 0° 153° (SSE) 3,629 - -10.6°
Exits shadow 22:48:35 - 132° (SE) 2,795 8.4 -10.8°
Reaches altitude 10° 22:49:09 10° 128° (SE) 2,697 8.3 -10.8°
Maximum altitude 22:51:57 13° 101° (ESE) 2,458 8.3 -10.9°
Drops below altitude 10° 22:54:43 10° 75° (ENE) 2,679 8.8 -11.0°
Sets 22:58:42 0° 50° (NE) 3,587 9.8 -11.2°
